EHI
0 0 0 0 0 0 0 0 0 0 0 0 0 0 0 0 0 0 0 0 0 0 0 0 0 0 0 0 0 0 0 0 0 0 0 0 0 0 0 0 0 0 0
0 0 0 0 0 0 0 0 0 0 0 0 0 0 0 0 0 0 0 0 0 0 0 0 0 0 0 0 0 0 0 0 0 0 0 0 0 0 0 0 0 0 0
0 0 0 0 0 0 0 0 0 0 0 0 0 0 0 0 0 0 0 0 0 0 0 0 0 0 0 0 0 0 0 0 0 0 0 0 0 0 0 0 0 0 0
0 0 0 0 0 0 0 0 0 0 0 0 0 0 0 0 0 0 0 0 0 0 0 0 0 0 0 0 0 0 0 0 0 0 0 0 0 0 0 0 0 0 0
0 0 0 0 0 0 0 0 0 0 0 0 0 0 0 0 0 0 0 0 0 0 0 0 0 0 0 0 0 0 0 0 0 0 0 0 0 0 0 0 0 0 0
0 0 0 0 0 0 0 0 0 0 0 0 0 0 0 0 0 0 0 0 0 0 0 0 0 0 0 0 0 0 0 0 0 0 0 0 0 0 0 0 0 0 0
0 0 0 0 0 0 0 0 0 0 0 0 0 0 0 0 0 0 0 0 0 0 0 0 0 0 0 0 0 0 0 0 0 0 0 0 0 0 0 0 0 0 0
0 0 0 0 0 0 0 0 0 0 0 0 0 0 0 0 0 0 0 0 0 0 0 0 0 0 0 0 0 0 0 0 0 0 0 0 0 0 0 0 0 0 0
0 0 0 0 0 0 0 0 0 0 0 0 0 0 0 0 0 0 0 0 0 0 0 0 0 0 0 0 0 0 0 0 0 0 0 0 0 0 0 0 0 0 0
0 0 0 0 0 0 0 0 0 0 0 0 0 0 0 0 0 0 0 0 0 0 0 0 0 0 0 0 0 0 0 0 0 0 0 0 0 0 0 0 0 0 0
0 0 0 0 0 0 0 0 0 0 0 0 0 0 0 0 0 0 0 0 0 0 0 0 0 0 0 0 0 0 0 0 0 0 0 0 0 0 0 0 0 0 0
1 0 0 0 0 0 0 0 0 0 0 0 0 0 0 0 0 0 0 0 0 0 0 0 0 0 0 0 0 0 0 0 0 0 0 0 0 0 0 0 0 0 0
1 0 0 0 0 0 0 0 0 0 0 0 0 0 0 0 0 0 0 0 0 0 0 0 0 0 0 0 0 0 0 0 0 0 0 0 0 0 0 0 0 0 0
1 0 0 0 0 0 0 0 0 0 0 0 0 0 0 0 0 0 0 0 0 0 0 0 0 0 0 0 0 0 0 0 0 0 0 0 0 0 0 0 0 0 0
0 0 0 0 0 0 0 0 0 0 0 0 0 0 0 0 0 0 0 0 0 0 0 0 0 0 0 0 0 0 0 0 0 0 0 0 0 0 0 0 0 0 0
0 0 0 0 0 0 0 0 0 0 0 0 0 0 0 0 0 0 0 0 0 0 0 0 0 0 0 0 0 0 0 0 0 0 0 0 0 0 0 0 0 0 0
0 0 0 0 0 0 0 0 0 0 0 0 0 0 0 0 0 0 0 0 0 0 0 0 0 0 0 0 0 0 0 0 0 0 0 0 0 0 0 0 0 0 0
0 0 0 0 0 0 0 0 0 0 0 0 0 0 0 0 0 0 0 0 0 0 0 0 0 0 0 0 0 0 0 0 0 0 0 0 0 0 0 0 0 0 0
0 0 0 0 0 0 0 0 0 0 0 0 0 0 0 0 0 0 0 0 0 0 0 0 0 0 0 0 0 0 0 0 0 0 0 0 0 0 0 0 0 0 0
0 0 0 0 0 0 0 0 0 0 0 0 0 0 0 0 0 0 0 0 0 0 0 0 0 0 0 0 0 0 0 0 0 0 0 0 0 0 0 0 0 0 0
0 0 0 0 0 0 0 0 0 0 0 0 0 0 0 0 0 0 0 0 0 0 0 0 0 0 0 0 0 0 0 0 0 0 0 0 0 0 0 0 0 0 0
0 0 0 0 0 0 0 0 0 0 0 0 0 0 0 0 0 0 0 0 0 0 0 0 0 0 0 0 0 0 0 0 0 0 0 0 0 0 0 0 0 0 0
0 0 0 0 0 0 0 0 0 0 0 0 0 0 0 0 0 0 0 0 0 0 0 0 0 0 0 0 0 0 0 0 0 0 0 0 0 0 0 0 0 0 0
0 0 0 0 0 0 0 0 0 0 0 0 0 0 0 0 0 0 0 0 0 0 0 0 0 0 0 0 0 0 0 0 0 0 0 0 0 0 0 0 0 0 0
0 0 0 0 0 0 0 0 0 0 0 0 0 0 0 0 0 0 0 0 0 0 0 0 0 0 0 0 0 0 0 0 0 0 0 0 0 0 0 0 0 0 0
0 0 0 0 0 0 0 0 0 0 0 0 0 0 0 0 0 0 0 0 0 0 0 0 0 0 0 0 0 0 0 0 0 0 0 0 0 0 0 0 0 0 0
Wind_Speed
3 3 2 2 3 2 3 3 3 3 3 4 4 5 5 5 4 3 2 6 7 7 8 8 8 8 8 7 7 6 6 6 6 6 6 6 6 6 6 6 6 5 5
3 3 3 2 2 2 2 3 3 3 3 3 4 4 4 4 4 4 2 3 6 6 6 7 7 7 7 7 7 6 6 6 6 5 5 5 5 5 5 5 5 5 5
4 4 3 2 2 2 3 3 3 3 3 3 3 3 3 4 4 4 3 2 2 5 5 6 6 6 7 7 7 6 6 5 5 5 5 5 5 5 5 4 4 4 5
5 4 3 3 3 3 3 3 3 3 2 2 2 2 2 3 3 3 2 2 1 2 3 5 5 5 6 7 6 6 6 5 6 6 6 5 5 5 5 5 5 5 5
6 4 3 3 3 3 2 3 2 2 2 2 2 2 1 1 2 2 2 2 2 2 1 2 4 5 6 7 7 7 7 6 6 6 6 6 6 5 5 5 6 5 5
6 5 3 4 4 3 3 2 3 2 2 2 3 2 2 1 1 1 2 2 2 3 2 2 2 3 5 5 5 6 6 7 7 6 6 6 6 5 5 5 6 6 6
7 6 4 4 4 4 4 4 3 3 2 2 3 2 2 2 0 1 1 2 3 3 3 3 2 2 2 3 3 4 5 6 6 6 6 6 6 5 5 5 5 5 5
7 7 6 5 5 4 4 4 4 3 2 2 3 3 1 2 1 1 1 3 3 3 3 4 3 3 2 2 2 4 4 5 5 5 6 5 5 5 5 5 5 5 5
7 6 7 6 6 5 5 5 5 5 3 1 1 3 3 3 1 1 1 2 2 2 3 3 4 4 4 3 3 4 5 4 5 6 6 6 5 5 5 5 5 5 5
7 7 7 7 6 5 5 5 5 4 5 3 1 1 2 3 3 0 1 1 2 3 3 3 4 4 4 4 4 5 5 5 5 5 5 5 6 6 5 5 6 6 6
6 7 7 7 7 5 6 5 5 4 4 4 3 2 2 1 2 2 1 1 1 1 2 3 3 3 4 4 4 5 6 6 5 5 5 5 5 5 5 6 6 6 6
4 6 7 6 6 6 6 6 5 6 4 4 3 3 3 3 3 3 2 2 1 1 1 2 3 3 3 4 6 7 8 7 7 6 6 5 5 5 6 6 7 7 8
5 7 7 6 6 6 6 6 6 6 6 5 5 3 3 3 3 3 3 2 1 1 2 1 3 3 4 4 5 8 8 8 8 7 7 6 6 6 7 7 8 8 8
6 7 7 7 7 7 7 7 5 6 5 5 6 5 3 3 3 3 4 4 2 1 1 3 1 3 4 4 5 7 6 8 8 8 8 8 8 8 8 8 8 8 8
5 7 8 8 7 8 7 7 5 6 6 5 5 5 3 3 3 3 3 3 4 3 3 3 2 2 3 3 5 4 5 7 8 9 9 9 9 9 9 9 9 9 9
6 7 8 8 8 7 7 7 5 5 6 5 4 5 4 3 3 3 3 3 3 4 3 3 3 2 2 3 4 5 5 6 8 8 9 9 9 9 9 9 10 10 10
7 8 8 8 8 7 7 7 7 7 7 6 5 6 5 4 4 3 3 3 3 3 4 2 2 2 2 2 2 2 3 4 4 8 9 9 9 9 9 9 9 10 10
8 8 8 8 8 8 8 8 8 8 8 8 7 6 6 5 5 4 3 4 4 4 4 3 2 2 2 2 2 2 3 3 4 6 8 8 8 9 9 9 9 9 9
8 7 8 9 9 9 9 8 8 8 8 8 8 8 7 7 6 4 5 4 3 3 3 3 2 1 1 1 1 2 2 2 3 4 5 6 7 7 7 7 8 8 8
8 8 8 8 8 9 9 8 8 8 8 7 8 8 8 8 8 7 6 5 4 4 3 2 2 2 2 1 1 2 2 2 3 3 3 3 4 5 5 6 7 7 7
8 7 7 7 7 7 8 9 9 9 8 7 7 7 8 9 10 8 6 6 6 4 3 3 2 2 2 2 3 2 3 2 3 2 2 2 2 3 4 5 6 6 6
6 7 8 8 8 7 10 13 10 8 8 8 7 7 7 8 9 10 10 9 9 7 6 4 4 4 4 4 3 3 3 2 3 2 2 3 2 4 4 4 5 6 6
6 6 7 7 8 8 11 13 13 8 8 7 7 6 5 6 7 6 7 9 9 10 9 7 6 7 6 5 4 4 4 4 4 2 2 4 3 4 4 4 6 7 7
6 6 7 7 7 7 11 12 12 8 7 7 7 7 7 6 6 7 6 6 6 7 8 7 7 7 6 5 5 4 4 3 3 2 3 4 3 4 4 4 6 8 7
6 6 5 7 7 7 10 11 10 6 5 6 6 7 7 7 8 9 7 6 5 5 6 8 8 7 6 6 5 3 3 3 4 3 3 4 3 3 4 4 4 6 7
6 5 5 5 6 6 8 11 11 5 5 5 4 5 7 7 7 8 7 6 7 6 4 3 4 4 4 4 6 6 5 4 4 3 3 3 3 2 4 3 3 3 4
Wind_Direction
138 129 121 113 112 110 111 106 105 109 109 116 131 138 142 142 137 133 143 157 155 154 155 156 157 156 157 158 156 157 156 155 151 153 156 157 158 159 162 160 156 152 151
147 143 136 129 126 125 120 118 119 118 111 114 127 135 140 142 142 142 140 163 168 166 168 168 169 169 170 174 172 172 172 171 167 165 166 167 168 172 178 179 175 173 173
158 153 150 150 146 129 120 109 101 99 110 110 111 122 130 138 145 147 146 147 170 181 181 183 184 184 185 189 188 187 186 185 181 181 185 184 180 184 190 192 187 187 191
162 156 160 165 150 133 125 119 112 105 106 116 114 115 123 133 147 154 155 163 168 183 198 202 198 199 201 201 200 197 195 196 194 195 196 200 199 198 202 203 202 206 206
167 162 167 162 148 136 135 143 119 121 131 131 124 103 106 133 147 166 174 185 186 187 199 223 217 214 214 213 211 207 201 200 201 205 204 209 211 211 212 214 213 214 216
170 164 166 161 152 143 145 138 124 98 109 130 114 85 55 57 116 178 204 202 205 208 208 221 225 228 227 224 221 220 212 206 205 208 209 210 210 209 212 215 218 219 222
173 170 173 162 164 163 162 149 126 114 105 113 93 66 30 33 57 228 220 221 228 222 209 213 213 215 236 232 225 223 218 207 204 208 210 207 207 205 205 211 219 223 224
177 180 174 172 171 160 155 157 141 130 122 130 126 113 58 352 331 260 220 223 232 228 222 218 211 210 217 217 221 222 220 212 204 206 208 204 205 206 209 215 220 225 231
184 178 177 174 173 168 174 176 160 150 149 145 152 145 151 206 277 324 272 234 224 223 228 220 217 215 213 213 220 225 223 219 214 213 210 208 208 208 215 223 226 229 234
183 180 177 177 174 173 174 180 171 161 149 156 147 108 133 149 151 232 317 282 235 226 227 224 221 218 214 213 219 221 225 225 221 223 221 218 215 215 221 232 241 243 243
186 183 180 179 178 179 179 175 168 168 162 160 161 150 127 95 120 148 222 292 296 249 229 222 224 223 215 214 219 224 226 227 226 229 230 228 225 222 228 239 249 255 257
185 186 182 183 183 181 181 179 174 173 175 164 163 161 160 162 176 165 183 223 251 286 270 233 226 225 218 216 224 222 222 223 226 230 236 239 240 237 240 246 254 261 266
188 192 187 185 184 186 183 177 175 179 178 176 177 182 182 183 160 156 155 173 218 290 303 261 233 226 223 215 226 226 225 222 225 230 237 242 246 247 247 251 257 264 269
190 186 187 189 189 185 184 179 179 183 181 185 189 182 181 187 174 167 161 154 157 277 289 264 260 229 227 220 226 224 230 226 228 233 237 242 246 249 251 253 256 261 265
185 185 190 190 190 186 181 174 181 184 179 187 188 184 182 186 183 183 170 165 160 184 239 252 251 244 229 225 225 218 226 232 234 237 241 246 249 252 254 256 256 257 259
186 182 187 188 188 186 182 179 179 182 180 184 181 182 187 185 181 181 181 182 173 173 211 235 238 251 246 236 216 217 230 239 242 243 247 250 253 256 257 259 258 258 258
185 187 187 186 187 187 184 184 188 182 185 187 186 189 195 182 182 184 174 173 178 172 200 241 241 252 242 245 227 222 234 237 246 247 248 250 254 257 259 260 260 260 260
188 190 188 187 192 191 188 190 192 189 190 192 194 190 195 186 188 187 180 187 188 187 190 218 233 238 243 246 240 239 239 236 241 249 247 248 250 254 259 260 261 261 261
187 188 189 192 194 191 190 193 193 192 196 197 193 192 194 183 191 190 190 193 192 187 184 197 227 227 251 258 251 252 252 256 253 250 242 241 247 256 262 263 263 263 263
187 189 194 198 196 191 190 191 191 194 198 199 196 196 194 192 195 192 193 195 187 180 177 190 217 230 241 243 227 238 255 246 261 267 259 258 259 264 263 262 262 264 265
193 190 190 197 192 189 195 192 193 195 195 199 201 202 204 203 202 195 195 193 185 185 184 194 210 216 226 216 222 215 236 257 260 247 260 262 262 267 266 263 262 261 262
190 186 191 193 194 202 198 193 190 194 195 199 204 207 211 208 209 208 207 197 187 187 193 194 205 216 228 223 219 212 217 235 262 218 229 258 244 262 264 260 258 259 260
184 188 194 193 199 205 195 193 193 189 194 200 204 203 208 208 200 203 210 210 209 210 201 194 209 222 225 218 204 216 218 223 239 236 214 262 245 257 262 262 258 256 258
191 197 197 196 200 206 196 194 191 191 195 200 201 201 204 207 202 198 202 208 216 223 220 215 220 227 226 213 203 213 220 229 248 245 210 253 257 260 273 270 264 259 262
194 198 195 196 200 205 194 191 185 187 198 208 209 207 206 212 213 201 197 210 226 241 238 223 225 231 230 219 194 183 195 219 254 245 200 231 253 268 271 268 263 258 265
195 193 197 199 199 201 192 190 184 186 196 206 209 214 211 212 213 201 201 206 226 239 230 219 222 240 239 231 204 204 209 223 246 256 204 214 244 261 277 259 265 272 273